Location: *
(44.3925°N, 5.4708°E)
Time: 04:53:22
(UTC+00:00)

SAR-Lupe-2 - Pass Details

Date: 18 September 2019
Orbit: 481 x 485 km, 98.2° (Epoch: 07 October)

Event Time Altitude Azimuth Distance (km) Brightness Sun altitude
Rises 19:11:44 0° 9° (N) 2,561 7.4 -16.2°
Reaches altitude 10° 19:13:50 10° 5° (N) 1,675 6.5 -16.6°
Maximum altitude 19:17:21 57° 287° (WNW) 578 4.2 -17.1°
Drops below altitude 10° 19:20:51 10° 208° (SSW) 1,658 6.3 -17.7°
Sets 19:22:55 0° 204° (SSW) 2,531 7.3 -18.1°
